Location: Maiden
(35.5760°N, 81.2120°W)
Time: 21:18:54
(UTC-04:00)

Envisat - Visible Passes

Search period start: 20 May 2018 00:00
Search period end: 30 May 2018 00:00
Orbit: 764 x 766 km, 98.2° (Epoch: 20 May)

Date Brightness Start Highest point End Pass type
(mag) Time Alt. Az. Time Alt. Az. Time Alt. Az.
20 May 5.7 22:11:24 10° WSW 22:13:44 13° W 22:16:06 10° WNW visible
21 May 4.7 21:32:16 10° SSW 21:36:44 31° W 21:41:14 10° NW visible
22 May 3.2 20:54:51 10° S 20:59:55 76° WSW 21:05:01 10° NNW visible
23 May 5.5 21:59:12 10° SW 22:02:29 17° W 22:05:47 10° NW visible
24 May 4.3 21:20:48 10° SSW 21:25:32 40° W 21:30:19 10° NNW visible
26 May 5.2 21:47:21 10° SW 21:51:14 22° W 21:55:10 10° NW visible
27 May 3.8 21:09:25 10° S 21:14:21 52° W 21:19:19 10° NNW visible
28 May 5.8 22:15:17 10° WSW 22:17:03 12° W 22:18:49 10° WNW visible
29 May 4.9 21:35:42 10° SSW 21:40:01 28° W 21:44:23 10° NW visible
